Location: Penum?ka
(16.4840°N, 80.5772°E)
Time: 20:57:52
(UTC+00:00)

Cosmos 2082 - Pass Details

Date: 09 August 2025
Orbit: 833 x 853 km, 71.0° (Epoch: 16 April)

Event Time Altitude Azimuth Distance (km) Brightness Sun altitude
Rises 15:42:39 0° 346° (NNW) 3,375 7.4 -35.1°
Reaches altitude 10° 15:45:06 10° 348° (NNW) 2,439 6.5 -35.6°
Enters shadow 15:47:18 25° 353° (N) 1,629 5.4 -36.0°
